Location: Rochester
(43.1610°N, 77.6109°W)
Time: 17:23:35
(UTC-04:00)

BlueWalker 3 - Visible Passes

Search period start: 03 October 2023 00:00
Search period end: 13 October 2023 00:00
Orbit: 491 x 508 km, 53.2° (Epoch: 02 October)

Date Brightness Start Highest point End Pass type
(mag) Time Alt. Az. Time Alt. Az. Time Alt. Az.
03 Oct 2.8 04:52:21 48° ENE 04:52:21 48° ENE 04:55:25 10° ESE visible
03 Oct 3.3 06:27:01 11° W 06:29:48 22° SW 06:32:50 10° S visible
04 Oct 4.3 04:32:26 20° ESE 04:32:26 20° ESE 04:33:47 10° ESE visible
04 Oct 3.3 06:07:06 20° WSW 06:08:09 22° SW 06:11:10 10° S visible
05 Oct 3.5 05:47:22 20° SSW 05:47:22 20° SSW 05:49:30 10° S visible
06 Oct 4.5 05:27:45 10° S 05:27:45 10° S 05:27:49 10° S visible
07 Oct 3.8 20:24:06 10° SSW 20:25:22 18° S 20:25:22 18° S visible
08 Oct 2.9 20:02:22 10° SSW 20:05:24 27° SE 20:05:24 27° SE visible
09 Oct 2.9 19:40:39 10° SSW 19:43:54 27° SE 19:45:13 22° E visible
09 Oct 4.4 21:18:30 10° WSW 21:19:52 20° W 21:19:52 20° W visible
10 Oct 3.0 19:18:54 10° SSW 19:22:09 28° SE 19:24:52 13° ENE visible
10 Oct 3.3 20:56:45 10° WSW 20:59:30 38° WNW 20:59:30 38° WNW visible
11 Oct 3.0 18:57:08 10° SSW 19:00:24 28° SE 19:03:40 10° ENE visible
11 Oct 2.6 20:35:00 10° WSW 20:38:40 47° NNW 20:38:58 45° NNW visible
12 Oct 2.7 20:13:13 10° WSW 20:16:54 47° NNW 20:18:19 31° NNE visible
